When you browse on this site, cookies collect data to enhance your experience and personalize the content and advertising you see.
Visit our Privacy Policy to learn more. By continuing to use the site, you agree to this use of cookies and data.
  • In United Kingdom
  • List of Countries
  • For 7 days
  • Water Temperature
  • Weather Map
  • Weather Widgets
  • user-avatar
    Login

    Hourly Weather Wlora

    Today, 29 January, Wednesday

    Time Temperature Precipitation Wind Pressure Humidity
    00:00 +10°C° 0 mm 7 mps 761 mmHg 82%
    01:00 +10°C° 0 mm 6 mps 761 mmHg 81%
    02:00 +10°C° 0 mm 7 mps 761 mmHg 81%
    03:00 +10°C° 0 mm 8 mps 760 mmHg 81%
    04:00 +11°C° 0 mm 8 mps 759 mmHg 80%
    05:00 +11°C° 0 mm 8 mps 759 mmHg 80%
    06:00 +11°C° 0 mm 8 mps 759 mmHg 80%
    07:00 +11°C° 0 mm 8 mps 759 mmHg 80%
    08:00 +12°C° 0.2 mm 7 mps 759 mmHg 80%
    09:00 +14°C° 0.2 mm 6 mps 759 mmHg 79%
    10:00 +14°C° 0.2 mm 5 mps 759 mmHg 79%
    11:00 +15°C° 0.1 mm 4 mps 759 mmHg 77%
    12:00 +15°C° 0.1 mm 4 mps 759 mmHg 74%
    13:00 +16°C° 0.1 mm 3 mps 759 mmHg 72%
    14:00 +16°C° 0 mm 2 mps 759 mmHg 72%
    15:00 +15°C° 0 mm 2 mps 759 mmHg 73%
    16:00 +15°C° 0 mm 1 mps 758 mmHg 73%
    17:00 +14°C° 0.1 mm 3 mps 759 mmHg 74%
    18:00 +13°C° 0.1 mm 4 mps 759 mmHg 75%
    19:00 +13°C° 0.1 mm 6 mps 760 mmHg 76%
    20:00 +13°C° 0.3 mm 6 mps 760 mmHg 77%
    21:00 +13°C° 0.3 mm 6 mps 760 mmHg 78%
    22:00 +13°C° 0.3 mm 6 mps 760 mmHg 80%
    23:00 +11°C° 0.2 mm 6 mps 761 mmHg 81%

    Tomorrow, 30 January, Thursday

    Time Temperature Precipitation Wind Pressure Humidity
    00:00 +11°C° 0.2 mm 6 mps 761 mmHg 82%
    01:00 +10°C° 0.2 mm 6 mps 761 mmHg 83%
    02:00 +10°C° 0 mm 6 mps 761 mmHg 84%
    03:00 +10°C° 0 mm 6 mps 761 mmHg 84%
    04:00 +9°C° 0 mm 6 mps 762 mmHg 85%
    05:00 +9°C° 0 mm 5 mps 762 mmHg 85%
    06:00 +9°C° 0 mm 5 mps 763 mmHg 85%
    07:00 +9°C° 0 mm 5 mps 763 mmHg 85%
    08:00 +11°C° 0 mm 4 mps 764 mmHg 79%
    09:00 +12°C° 0 mm 4 mps 764 mmHg 74%
    10:00 +13°C° 0 mm 4 mps 765 mmHg 68%
    11:00 +13°C° 0 mm 4 mps 764 mmHg 66%
    12:00 +14°C° 0 mm 4 mps 764 mmHg 63%
    13:00 +14°C° 0 mm 4 mps 764 mmHg 61%
    14:00 +14°C° 0 mm 3 mps 764 mmHg 61%
    15:00 +14°C° 0 mm 3 mps 764 mmHg 62%
    16:00 +14°C° 0 mm 3 mps 764 mmHg 62%
    17:00 +13°C° 0 mm 3 mps 764 mmHg 66%
    18:00 +12°C° 0 mm 3 mps 765 mmHg 69%
    19:00 +11°C° 0 mm 3 mps 765 mmHg 73%
    20:00 +10°C° 0 mm 3 mps 765 mmHg 70%
    21:00 +10°C° 0 mm 2 mps 765 mmHg 67%
    22:00 +10°C° 0 mm 2 mps 765 mmHg 64%
    23:00 +10°C° 0 mm 3 mps 765 mmHg 60%

    Day after tomorrow, 31 January, Friday

    Time Temperature Precipitation Wind Pressure Humidity
    00:00 +10°C° 0 mm 3 mps 765 mmHg 56%
    01:00 +10°C° 0 mm 3 mps 765 mmHg 51%
    02:00 +10°C° 0 mm 3 mps 765 mmHg 56%
    03:00 +10°C° 0 mm 3 mps 765 mmHg 61%
    04:00 +9°C° 0 mm 3 mps 764 mmHg 66%
    05:00 +8°C° 0 mm 4 mps 764 mmHg 67%
    06:00 +8°C° 0 mm 4 mps 764 mmHg 68%
    07:00 +8°C° 0 mm 5 mps 765 mmHg 69%
    08:00 +9°C° 0 mm 5 mps 765 mmHg 66%
    09:00 +12°C° 0 mm 5 mps 765 mmHg 64%
    10:00 +13°C° 0 mm 5 mps 765 mmHg 61%
    11:00 +14°C° 0 mm 5 mps 765 mmHg 62%
    12:00 +14°C° 0 mm 5 mps 764 mmHg 62%
    13:00 +15°C° 0 mm 5 mps 764 mmHg 63%
    14:00 +14°C° 0 mm 5 mps 764 mmHg 65%
    15:00 +14°C° 0 mm 4 mps 764 mmHg 68%
    16:00 +14°C° 0 mm 4 mps 764 mmHg 71%
    17:00 +13°C° 0 mm 3 mps 764 mmHg 74%
    18:00 +12°C° 0 mm 3 mps 764 mmHg 77%
    19:00 +11°C° 0 mm 3 mps 764 mmHg 81%
    20:00 +12°C° 0 mm 2 mps 764 mmHg 81%
    21:00 +12°C° 0 mm 2 mps 764 mmHg 82%
    22:00 +11°C° 0 mm 1 mps 765 mmHg 82%
    23:00 +11°C° 0 mm 1 mps 765 mmHg 82%

    1 February, Saturday

    Time Temperature Precipitation Wind Pressure Humidity
    00:00 +11°C° 0 mm 1 mps 765 mmHg 82%
    01:00 +11°C° 0 mm 1 mps 765 mmHg 81%
    02:00 +11°C° 0 mm 1 mps 765 mmHg 81%
    03:00 +10°C° 0 mm 1 mps 764 mmHg 81%
    04:00 +10°C° 0 mm 1 mps 764 mmHg 81%
    05:00 +9°C° 0 mm 2 mps 764 mmHg 81%
    06:00 +9°C° 0 mm 2 mps 764 mmHg 81%
    07:00 +9°C° 0 mm 2 mps 765 mmHg 81%
    08:00 +10°C° 0 mm 2 mps 765 mmHg 77%
    09:00 +13°C° 0 mm 1 mps 765 mmHg 72%
    10:00 +14°C° 0 mm 1 mps 765 mmHg 67%
    11:00 +15°C° 0 mm 2 mps 764 mmHg 67%
    12:00 +15°C° 0 mm 2 mps 764 mmHg 66%
    13:00 +16°C° 0 mm 2 mps 764 mmHg 65%
    14:00 +16°C° 0 mm 2 mps 764 mmHg 69%
    15:00 +15°C° 0 mm 2 mps 763 mmHg 73%
    16:00 +15°C° 0 mm 2 mps 763 mmHg 77%
    17:00 +14°C° 0 mm 1 mps 764 mmHg 81%
    18:00 +13°C° 0 mm 1 mps 764 mmHg 85%
    19:00 +11°C° 0 mm 0 mps 764 mmHg 88%
    20:00 +12°C° 0 mm 1 mps 764 mmHg 88%
    21:00 +12°C° 0 mm 1 mps 764 mmHg 87%
    22:00 +12°C° 0 mm 1 mps 764 mmHg 87%
    23:00 +12°C° 0 mm 1 mps 764 mmHg 86%

    2 February, Sunday

    Time Temperature Precipitation Wind Pressure Humidity
    00:00 +10°C° 0 mm 2 mps 764 mmHg 85%
    01:00 +10°C° 0 mm 2 mps 764 mmHg 84%
    02:00 +10°C° 0 mm 2 mps 763 mmHg 83%
    03:00 +11°C° 0 mm 1 mps 763 mmHg 83%
    04:00 +11°C° 0 mm 1 mps 763 mmHg 82%
    05:00 +11°C° 0 mm 1 mps 763 mmHg 82%
    06:00 +10°C° 0 mm 2 mps 763 mmHg 81%
    07:00 +10°C° 0 mm 2 mps 763 mmHg 80%
    08:00 +12°C° 0 mm 2 mps 763 mmHg 76%
    09:00 +14°C° 0 mm 2 mps 763 mmHg 73%
    10:00 +15°C° 0 mm 2 mps 764 mmHg 70%
    11:00 +14°C° 0.2 mm 3 mps 763 mmHg 73%
    12:00 +14°C° 0.2 mm 4 mps 763 mmHg 76%
    13:00 +15°C° 0.2 mm 5 mps 763 mmHg 79%
    14:00 +14°C° 0.2 mm 6 mps 763 mmHg 80%
    15:00 +14°C° 0.2 mm 7 mps 763 mmHg 82%
    16:00 +12°C° 0.2 mm 8 mps 764 mmHg 83%
    17:00 +12°C° 0 mm 8 mps 764 mmHg 86%
    18:00 +11°C° 0 mm 8 mps 764 mmHg 89%
    19:00 +10°C° 0 mm 9 mps 765 mmHg 92%
    20:00 +10°C° 0 mm 8 mps 765 mmHg 92%
    21:00 +9°C° 0 mm 8 mps 765 mmHg 92%
    22:00 +9°C° 0 mm 7 mps 765 mmHg 92%
    23:00 +9°C° 0 mm 7 mps 765 mmHg 90%

    3 February, Monday

    Time Temperature Precipitation Wind Pressure Humidity
    00:00 +8°C° 0 mm 6 mps 765 mmHg 88%
    01:00 +8°C° 0 mm 6 mps 765 mmHg 85%
    02:00 +8°C° 0 mm 6 mps 765 mmHg 83%
    03:00 +8°C° 0 mm 6 mps 765 mmHg 80%
    04:00 +6°C° 0 mm 7 mps 765 mmHg 78%
    05:00 +6°C° 0 mm 7 mps 765 mmHg 73%
    06:00 +7°C° 0 mm 6 mps 766 mmHg 68%
    07:00 +7°C° 0 mm 6 mps 766 mmHg 63%
    08:00 +9°C° 0 mm 6 mps 766 mmHg 57%
    09:00 +12°C° 0 mm 5 mps 766 mmHg 51%
    10:00 +13°C° 0 mm 5 mps 767 mmHg 45%
    11:00 +14°C° 0 mm 5 mps 766 mmHg 43%
    12:00 +15°C° 0 mm 5 mps 766 mmHg 41%
    13:00 +16°C° 0 mm 5 mps 766 mmHg 38%
    14:00 +15°C° 0 mm 6 mps 766 mmHg 44%
    15:00 +15°C° 0 mm 6 mps 766 mmHg 50%
    16:00 +14°C° 0 mm 7 mps 766 mmHg 55%
    17:00 +13°C° 0 mm 6 mps 766 mmHg 56%
    18:00 +11°C° 0 mm 6 mps 766 mmHg 57%
    19:00 +10°C° 0 mm 6 mps 766 mmHg 58%
    20:00 +10°C° 0 mm 5 mps 766 mmHg 57%
    21:00 +10°C° 0 mm 5 mps 766 mmHg 55%
    22:00 +11°C° 0 mm 4 mps 767 mmHg 53%
    23:00 +11°C° 0 mm 4 mps 767 mmHg 53%
    Show more